,,PA_Meas_PMT16A,,PR_Meas_QMR101_102,,RH_Meas_QMH101,,SR_Meas_QMS101,,TA_Meas_QMH101,,GenWind,,GenWind,
time,status,PA,status,PR,status,RH,status,SR,status,TA,status,DirAvg,status,SpdAvg,
2011-05-09, 00:00:04,VALID,918.07,VALID,0,VALID,94.6447,VALID,0,VALID,19.8978,VALID,29,VALID,0.0742188,
2011-05-09, 00:01:04,VALID,918.058,VALID,0,VALID,94.7819,VALID,0,VALID,19.9173,VALID,29,VALID,0,
2011-05-09, 00:02:04,VALID,918.072,VALID,0,VALID,94.9649,VALID,0,VALID,19.9563,VALID,29,VALID,0,
2011-05-09, 00:03:04,VALID,918.067,VALID,0,VALID,95.1707,VALID,0,VALID,19.9758,VALID,29,VALID,0,
2011-05-09, 00:04:04,VALID,918.044,VALID,0,VALID,95.0792,VALID,0,VALID,19.9563,VALID,29,VALID,0,
2011-05-09, 00:05:04,VALID,918.036,VALID,0,VALID,95.003,VALID,0,VALID,19.9758,VALID,29,VALID,0,
2011-05-09, 00:06:04,VALID,918.021,VALID,0,VALID,94.9039,VALID,0,VALID,19.9563,VALID,29,VALID,0,
2011-05-09, 00:07:04,VALID,918.022,VALID,0,VALID,94.7591,VALID,0,VALID,19.9563,VALID,29,VALID,0,
2011-05-09, 00:08:04,VALID,918.018,VALID,0,VALID,94.5532,VALID,0,VALID,19.9368,VALID,29,VALID,0,
2011-05-09, 00:09:04,VALID,918.047,VALID,0,VALID,94.0958,VALID,0,VALID,19.8978,VALID,29,VALID,0,
2011-05-09, 00:10:04,VALID,918.041,VALID,0,VALID,94.0577,VALID,0,VALID,19.9173,VALID,29,VALID,0,
2011-05-09, 00:11:04,VALID,918.084,VALID,0,VALID,93.8061,VALID,0,VALID,19.8978,VALID,29,VALID,0,
2011-05-09, 00:12:04,VALID,918.126,VALID,0,VALID,93.6155,VALID,0,VALID,19.8783,VALID,29,VALID,0,
2011-05-09, 00:13:04,VALID,918.108,VALID,0,VALID,93.5622,VALID,0,VALID,19.8573,VALID,29,VALID,0,
2011-05-09, 00:14:04,VALID,918.1,VALID,0,VALID,93.3259,VALID,0,VALID,19.8393,VALID,29,VALID,0,
2011-05-09, 00:15:04,VALID,918.125,VALID,0,VALID,94.2864,VALID,0,VALID,19.8978,VALID,29,VALID,0,
2011-05-09, 00:16:04,VALID,918.108,VALID,0,VALID,94.4389,VALID,0,VALID,19.8978,VALID,29,VALID,0.0539063,
2011-05-09, 00:17:04,VALID,918.098,VALID,0,VALID,94.6371,VALID,0,VALID,19.8783,VALID,29,VALID,0.165625,
2011-05-09, 00:18:04,VALID,918.089,VALID,0,VALID,94.82,VALID,0,VALID,19.8573,VALID,29,VALID,0,
2011-05-09, 00:19:04,VALID,918.104,VALID,0,VALID,95.1174,VALID,0,VALID,19.8978,VALID,29,VALID,0.078125,
2011-05-09, 00:20:04,VALID,918.1,VALID,0,VALID,95.1326,VALID,0,VALID,19.8978,VALID,29,VALID,0.176172,
2011-05-09, 00:21:04,VALID,918.088,VALID,0,VALID,95.3461,VALID,0,VALID,19.8783,VALID,29,VALID,0.163672,
2011-05-09, 00:22:04,VALID,918.073,VALID,0,VALID,95.0488,VALID,0,VALID,19.8198,VALID,29,VALID,0.05625,
2011-05-09, 00:23:04,VALID,918.079,VALID,0,VALID,95.2012,VALID,0,VALID,19.8603,VALID,29,VALID,0,
2011-05-09, 00:24:04,VALID,918.076,VALID,0,VALID,95.2927,VALID,0,VALID,19.8198,VALID,29,VALID,0.0015625,
2011-05-09, 00:25:04,VALID,918.034,VALID,0,VALID,95.3842,VALID,0,VALID,19.8198,VALID,29,VALID,0,
2011-05-09, 00:26:04,VALID,918.072,VALID,0,VALID,95.3613,VALID,0,VALID,19.8198,VALID,29,VALID,0,
2011-05-09, 00:27:04,VALID,918.043,VALID,0,VALID,95.4528,VALID,0,VALID,19.8408,VALID,29,VALID,0,
2011-05-09, 00:28:04,VALID,918.029,VALID,0,VALID,95.3537,VALID,0,VALID,19.7793,VALID,29,VALID,0,
2011-05-09, 00:29:04,VALID,917.995,VALID,0,VALID,95.4223,VALID,0,VALID,19.8198,VALID,29,VALID,0,
2011-05-09, 00:30:04,VALID,918.01,VALID,0,VALID,95.5214,VALID,0,VALID,19.8393,VALID,29,VALID,0,
2011-05-09, 00:31:04,VALID,917.949,VALID,0,VALID,95.6281,VALID,0,VALID,19.8588,VALID,29,VALID,0.148438,
2011-05-09, 00:32:04,VALID,917.94,VALID,0,VALID,95.712,VALID,0,VALID,19.8978,VALID,29,VALID,0.142188,
2011-05-09, 00:33:04,VALID,917.926,VALID,0,VALID,95.7044,VALID,0,VALID,19.9173,VALID,29,VALID,0,
2011-05-09, 00:34:04,VALID,917.932,VALID,0,VALID,95.7349,VALID,0,VALID,19.9173,VALID,29,VALID,0,
2011-05-09, 00:35:04,VALID,917.892,VALID,0,VALID,95.6891,VALID,0,VALID,19.9578,VALID,29,VALID,0.370703,
2011-05-09, 00:36:04,VALID,917.861,VALID,0,VALID,95.4985,VALID,0,VALID,19.8783,VALID,29,VALID,0.208203,
2011-05-09, 00:37:04,VALID,917.893,VALID,0,VALID,95.7806,VALID,0,VALID,19.9353,VALID,29,VALID,0,
2011-05-09, 00:38:04,VALID,917.878,VALID,0,VALID,95.6205,VALID,0,VALID,19.9368,VALID,29,VALID,0.296484,
2011-05-09, 00:39:04,VALID,917.848,VALID,0,VALID,95.4147,VALID,0,VALID,19.8783,VALID,29,VALID,0.247266,
2011-05-09, 00:40:04,VALID,917.844,VALID,0,VALID,95.247,VALID,0,VALID,19.8003,VALID,29,VALID,0.477344,
2011-05-09, 00:41:04,VALID,917.835,VALID,0,VALID,95.5671,VALID,0,VALID,19.8588,VALID,29,VALID,0.351172,
2011-05-09, 00:42:04,VALID,917.841,VALID,0,VALID,95.9559,VALID,0,VALID,19.9758,VALID,29,VALID,0.657812,
2011-05-09, 00:43:04,VALID,917.865,VALID,0,VALID,95.9407,VALID,0,VALID,19.9953,VALID,29,VALID,0.246875,
2011-05-09, 00:44:04,VALID,917.905,VALID,0,VALID,96.0017,VALID,0,VALID,19.9953,VALID,29,VALID,0,
2011-05-09, 00:45:04,VALID,917.871,VALID,0,VALID,96.0398,VALID,0,VALID,20.0553,VALID,29,VALID,0,
2011-05-09, 00:46:04,VALID,917.853,VALID,0,VALID,95.9559,VALID,0,VALID,20.0148,VALID,29,VALID,0,
2011-05-09, 00:47:04,VALID,917.867,VALID,0,VALID,96.0017,VALID,0,VALID,20.0538,VALID,29,VALID,0,
2011-05-09, 00:48:04,VALID,917.9,VALID,0,VALID,95.8797,VALID,0,VALID,20.0553,VALID,29,VALID,0,
2011-05-09, 00:49:04,VALID,917.855,VALID,0,VALID,95.9941,VALID,0,VALID,20.0538,VALID,29,VALID,0.164453,
2011-05-09, 00:50:04,VALID,917.817,VALID,0,VALID,95.9026,VALID,0,VALID,20.0733,VALID,29,VALID,0.455859,
2011-05-09, 00:51:04,VALID,917.794,VALID,0,VALID,95.9941,VALID,0,VALID,20.0928,VALID,29,VALID,0.468359,
2011-05-09, 00:52:04,VALID,917.799,VALID,0,VALID,95.8492,VALID,0,VALID,20.0538,VALID,29,VALID,0.628516,
2011-05-09, 00:53:04,VALID,917.818,VALID,0,VALID,95.9483,VALID,0,VALID,20.0928,VALID,29,VALID,0.651172,
2011-05-09, 00:54:04,VALID,917.798,VALID,0,VALID,95.9941,VALID,0,VALID,20.0928,VALID,29,VALID,0.516406,
2011-05-09, 00:55:04,VALID,917.813,VALID,0,VALID,95.9788,VALID,0,VALID,20.1123,VALID,29,VALID,0.472266,
2011-05-09, 00:56:04,VALID,917.791,VALID,0,VALID,95.9636,VALID,0,VALID,20.0928,VALID,29,VALID,0.561328,
2011-05-09, 00:57:04,VALID,917.819,VALID,0,VALID,95.8263,VALID,0,VALID,20.0733,VALID,29,VALID,0.4625,
2011-05-09, 00:58:04,VALID,917.797,VALID,0,VALID,95.9026,VALID,0,VALID,20.0538,VALID,29,VALID,0.651563,
2011-05-09, 00:59:04,VALID,917.781,VALID,0,VALID,95.8111,VALID,0,VALID,20.0343,VALID,29,VALID,0.489062,
2011-05-09, 01:00:04,VALID,917.778,VALID,0,VALID,95.8797,VALID,0,VALID,20.0343,VALID,29,VALID,0.389062,
2011-05-09, 01:01:04,VALID,917.725,VALID,0,VALID,95.773,VALID,0,VALID,19.9953,VALID,29,VALID,0.316016,
2011-05-09, 01:02:04,VALID,917.698,VALID,0,VALID,95.773,VALID,0,VALID,19.9758,VALID,29,VALID,0.35,
2011-05-09, 01:03:04,VALID,917.687,VALID,0,VALID,95.8797,VALID,0,VALID,19.9758,VALID,29,VALID,0.0195313,
2011-05-09, 01:04:04,VALID,917.68,VALID,0,VALID,95.7196,VALID,0,VALID,19.9173,VALID,29,VALID,0,
2011-05-09, 01:05:04,VALID,917.694,VALID,0,VALID,95.7349,VALID,0,VALID,19.9368,VALID,29,VALID,0,
2011-05-09, 01:06:04,VALID,917.69,VALID,0,VALID,95.6967,VALID,0,VALID,19.9158,VALID,29,VALID,0,
2011-05-09, 01:07:04,VALID,917.674,VALID,0,VALID,95.3003,VALID,0,VALID,19.8198,VALID,29,VALID,0,
2011-05-09, 01:08:04,VALID,917.699,VALID,0,VALID,94.9344,VALID,0,VALID,19.7013,VALID,29,VALID,0.183203,
2011-05-09, 01:09:04,VALID,917.665,VALID,0,VALID,94.9115,VALID,0,VALID,19.7223,VALID,29,VALID,0.483984,
2011-05-09, 01:10:04,VALID,917.651,VALID,0,VALID,95.3308,VALID,0,VALID,19.7208,VALID,29,VALID,0.630469,
2011-05-09, 01:11:04,VALID,917.654,VALID,0,VALID,95.712,VALID,0,VALID,19.8408,VALID,29,VALID,0.630078,
2011-05-09, 01:12:04,VALID,917.633,VALID,0,VALID,95.651,VALID,0,VALID,19.8003,VALID,29,VALID,0.458203,
2011-05-09, 01:13:04,VALID,917.66,VALID,0,VALID,95.5671,VALID,0,VALID,19.7403,VALID,29,VALID,0.348828,
2011-05-09, 01:14:04,VALID,917.714,VALID,0,VALID,95.5214,VALID,0,VALID,19.7223,VALID,29,VALID,0,
2011-05-09, 01:15:04,VALID,917.692,VALID,0,VALID,95.4604,VALID,0,VALID,19.7223,VALID,29,VALID,0,
2011-05-09, 01:16:04,VALID,917.666,VALID,0,VALID,95.5214,VALID,0,VALID,19.7013,VALID,29,VALID,0.0046875,
2011-05-09, 01:17:04,VALID,917.645,VALID,0,VALID,95.4147,VALID,0,VALID,19.6833,VALID,29,VALID,0.0160156,
2011-05-09, 01:18:04,VALID,917.638,VALID,0,VALID,95.3537,VALID,0,VALID,19.6833,VALID,29,VALID,0,
2011-05-09, 01:19:04,VALID,917.649,VALID,0,VALID,95.3384,VALID,0,VALID,19.6638,VALID,29,VALID,0,
2011-05-09, 01:20:04,VALID,917.665,VALID,0,VALID,95.3079,VALID,0,VALID,19.6638,VALID,29,VALID,0,
2011-05-09, 01:21:04,VALID,917.625,VALID,0,VALID,95.1555,VALID,0,VALID,19.6053,VALID,29,VALID,0,
2011-05-09, 01:22:04,VALID,917.633,VALID,0,VALID,95.3003,VALID,0,VALID,19.6443,VALID,29,VALID,0,
2011-05-09, 01:23:04,VALID,917.652,VALID,0,VALID,95.3918,VALID,0,VALID,19.6428,VALID,29,VALID,0,
2011-05-09, 01:24:04,VALID,917.647,VALID,0,VALID,95.0716,VALID,0,VALID,19.5663,VALID,29,VALID,0.224219,
2011-05-09, 01:25:04,VALID,917.653,VALID,0,VALID,95.1936,VALID,0,VALID,19.5468,VALID,29,VALID,0,
2011-05-09, 01:26:04,VALID,917.635,VALID,0,VALID,95.4299,VALID,0,VALID,19.5858,VALID,29,VALID,0.273828,
2011-05-09, 01:27:04,VALID,917.609,VALID,0,VALID,95.6129,VALID,0,VALID,19.6053,VALID,29,VALID,0.495313,
2011-05-09, 01:28:04,VALID,917.603,VALID,0,VALID,95.125,VALID,0,VALID,19.4688,VALID,29,VALID,0.458203,
2011-05-09, 01:29:04,VALID,917.578,VALID,0,VALID,94.9192,VALID,0,VALID,19.3518,VALID,29,VALID,0.746484,
2011-05-09, 01:30:04,VALID,917.594,VALID,0,VALID,95.468,VALID,0,VALID,19.4103,VALID,29,VALID,0.835547,
2011-05-09, 01:31:04,VALID,917.558,VALID,0,VALID,95.7577,VALID,0,VALID,19.4493,VALID,29,VALID,0.460938,
2011-05-09, 01:32:04,VALID,917.571,VALID,0,VALID,95.9102,VALID,0,VALID,19.4688,VALID,29,VALID,0.291797,
2011-05-09, 01:33:04,VALID,917.531,VALID,0,VALID,95.9941,VALID,0,VALID,19.4688,VALID,29,VALID,0.422266,
2011-05-09, 01:34:04,VALID,917.542,VALID,0,VALID,96.0169,VALID,0,VALID,19.4883,VALID,29,VALID,0.034375,
2011-05-09, 01:35:04,VALID,917.526,VALID,0,VALID,96.1236,VALID,0,VALID,19.5273,VALID,29,VALID,0.288281,
2011-05-09, 01:36:04,VALID,917.491,VALID,0,VALID,96.1313,VALID,0,VALID,19.5078,VALID,29,VALID,0.303516,
2011-05-09, 01:37:04,VALID,917.48,VALID,0,VALID,96.1541,VALID,0,VALID,19.5078,VALID,29,VALID,0,
2011-05-09, 01:38:04,VALID,917.456,VALID,0,VALID,96.1236,VALID,0,VALID,19.4673,VALID,29,VALID,0.00078125,
2011-05-09, 01:39:04,VALID,917.465,VALID,0,VALID,96.3829,VALID,0,VALID,19.6053,VALID,29,VALID,0.832812,
2011-05-09, 01:40:04,VALID,917.454,VALID,0,VALID,96.3447,VALID,0,VALID,19.6653,VALID,29,VALID,0.0757812,
2011-05-09, 01:41:04,VALID,917.445,VALID,0,VALID,96.4591,VALID,0,VALID,19.6848,VALID,29,VALID,0.503906,
2011-05-09, 01:42:04,VALID,917.412,VALID,0,VALID,96.5429,VALID,0,VALID,19.8018,VALID,29,VALID,0.390234,
2011-05-09, 01:43:04,VALID,917.396,VALID,0,VALID,96.3219,VALID,0,VALID,19.7613,VALID,29,VALID,0,
2011-05-09, 01:44:04,VALID,917.397,VALID,0,VALID,96.1541,VALID,0,VALID,19.6833,VALID,29,VALID,0.0148437,
2011-05-09, 01:45:04,VALID,917.395,VALID,0,VALID,96.1008,VALID,0,VALID,19.6443,VALID,29,VALID,0.24375,
2011-05-09, 01:46:04,VALID,917.444,VALID,0,VALID,96.3524,VALID,0,VALID,19.7223,VALID,29,VALID,0.299219,
2011-05-09, 01:47:04,VALID,917.422,VALID,0,VALID,96.238,VALID,0,VALID,19.7823,VALID,29,VALID,0.510547,
2011-05-09, 01:48:04,VALID,917.436,VALID,0,VALID,96.1008,VALID,0,VALID,19.6638,VALID,29,VALID,0.610937,
2011-05-09, 01:49:04,VALID,917.429,VALID,0,VALID,96.2151,VALID,0,VALID,19.6638,VALID,29,VALID,0.838281,
2011-05-09, 01:50:04,VALID,917.451,VALID,0,VALID,96.4591,VALID,0,VALID,19.8408,VALID,29,VALID,0.763281,
2011-05-09, 01:51:04,VALID,917.445,VALID,0,VALID,96.3066,VALID,0,VALID,19.8003,VALID,29,VALID,0.616016,
2011-05-09, 01:52:04,VALID,917.439,VALID,0,VALID,96.1618,VALID,0,VALID,19.7613,VALID,29,VALID,0.457031,
2011-05-09, 01:53:04,VALID,917.411,VALID,0,VALID,96.36,VALID,0,VALID,19.8183,VALID,29,VALID,0.492188,
2011-05-09, 01:54:04,VALID,917.411,VALID,0,VALID,96.2304,VALID,0,VALID,19.7988,VALID,29,VALID,0.579687,
2011-05-09, 01:55:04,VALID,917.414,VALID,0,VALID,96.2837,VALID,0,VALID,19.8003,VALID,29,VALID,0.7375,
2011-05-09, 01:56:04,VALID,917.398,VALID,0,VALID,96.2533,VALID,0,VALID,19.8198,VALID,29,VALID,0.628516,
2011-05-09, 01:57:04,VALID,917.438,VALID,0,VALID,96.2533,VALID,0,VALID,19.7988,VALID,29,VALID,0.70625,
2011-05-09, 01:58:04,VALID,917.397,VALID,0,VALID,96.1923,VALID,0,VALID,19.7403,VALID,29,VALID,0.970703,
2011-05-09, 01:59:04,VALID,917.403,VALID,0,VALID,96.2685,VALID,0,VALID,19.7613,VALID,29,VALID,0.924219,
2011-05-09, 02:00:04,VALID,917.407,VALID,0,VALID,96.1694,VALID,0,VALID,19.7223,VALID,29,VALID,0.674609,
2011-05-09, 02:01:04,VALID,917.409,VALID,0,VALID,96.4972,VALID,0,VALID,19.8003,VALID,29,VALID,0.876562,
2011-05-09, 02:02:04,VALID,917.423,VALID,0,VALID,96.642,VALID,0,VALID,19.9173,VALID,29,VALID,0.7625,
2011-05-09, 02:03:04,VALID,917.45,VALID,0,VALID,96.4743,VALID,0,VALID,19.9173,VALID,29,VALID,0.577344,
2011-05-09, 02:04:04,VALID,917.418,VALID,0,VALID,96.5201,VALID,0,VALID,19.9188,VALID,29,VALID,0.867969,
2011-05-09, 02:05:04,VALID,917.404,VALID,0,VALID,96.5506,VALID,0,VALID,19.8978,VALID,29,VALID,0.651953,
2011-05-09, 02:06:04,VALID,917.367,VALID,0,VALID,96.5963,VALID,0,VALID,19.9563,VALID,29,VALID,0.401953,
2011-05-09, 02:07:04,VALID,917.32,VALID,0,VALID,96.5582,VALID,0,VALID,19.9158,VALID,29,VALID,0.566406,
2011-05-09, 02:08:04,VALID,917.291,VALID,0,VALID,96.5201,VALID,0,VALID,19.9173,VALID,29,VALID,0.594141,
2011-05-09, 02:09:04,VALID,917.307,VALID,0,VALID,96.5506,VALID,0,VALID,19.8978,VALID,29,VALID,0.557422,
2011-05-09, 02:10:04,VALID,917.291,VALID,0,VALID,96.4591,VALID,0,VALID,19.8993,VALID,29,VALID,0.377734,
2011-05-09, 02:11:04,VALID,917.307,VALID,0,VALID,96.6954,VALID,0,VALID,19.9368,VALID,29,VALID,0.753125,
2011-05-09, 02:12:04,VALID,917.273,VALID,0,VALID,96.7107,VALID,0,VALID,19.9758,VALID,29,VALID,0.687109,
2011-05-09, 02:13:04,VALID,917.271,VALID,0,VALID,96.6725,VALID,0,VALID,19.9953,VALID,29,VALID,0.608203,
2011-05-09, 02:14:04,VALID,917.273,VALID,0,VALID,96.6115,VALID,0,VALID,19.9968,VALID,29,VALID,0.363281,
2011-05-09, 02:15:04,VALID,917.239,VALID,0,VALID,96.7411,VALID,0,VALID,19.9968,VALID,29,VALID,0.549219,
2011-05-09, 02:16:04,VALID,917.215,VALID,0,VALID,96.6725,VALID,0,VALID,19.9758,VALID,29,VALID,0.35625,
2011-05-09, 02:17:04,VALID,917.184,VALID,0,VALID,96.6802,VALID,0,VALID,19.9758,VALID,29,VALID,0.390234,
2011-05-09, 02:18:04,VALID,917.167,VALID,0,VALID,96.6954,VALID,0,VALID,19.9953,VALID,29,VALID,0.498047,
2011-05-09, 02:19:04,VALID,917.184,VALID,0,VALID,96.642,VALID,0,VALID,19.9968,VALID,29,VALID,0.719531,
2011-05-09, 02:20:04,VALID,917.155,VALID,0,VALID,96.4133,VALID,0,VALID,19.8183,VALID,29,VALID,0.646484,
2011-05-09, 02:21:04,VALID,917.159,VALID,0,VALID,96.6649,VALID,0,VALID,19.8393,VALID,29,VALID,0.678125,
2011-05-09, 02:22:04,VALID,917.127,VALID,0,VALID,96.7107,VALID,0,VALID,19.8393,VALID,29,VALID,0.498828,
2011-05-09, 02:23:04,VALID,917.127,VALID,0,VALID,96.7411,VALID,0,VALID,19.8588,VALID,29,VALID,0.567578,
2011-05-09, 02:24:04,VALID,917.11,VALID,0,VALID,96.8326,VALID,0,VALID,19.8978,VALID,29,VALID,0.742578,
2011-05-09, 02:25:04,VALID,917.125,VALID,0,VALID,96.8555,VALID,0,VALID,19.9758,VALID,29,VALID,0.673047,
2011-05-09, 02:26:04,VALID,917.103,VALID,0,VALID,96.8479,VALID,0,VALID,19.9743,VALID,29,VALID,0.813672,
2011-05-09, 02:27:04,VALID,917.115,VALID,0,VALID,96.8174,VALID,0,VALID,19.9368,VALID,29,VALID,0.882422,
2011-05-09, 02:28:04,VALID,917.108,VALID,0,VALID,96.8174,VALID,0,VALID,19.9758,VALID,345,VALID,0.622266,
2011-05-09, 02:29:04,VALID,917.092,VALID,0,VALID,96.6802,VALID,0,VALID,19.8978,VALID,345,VALID,0.364062,
2011-05-09, 02:30:04,VALID,917.062,VALID,0,VALID,96.825,VALID,0,VALID,19.8978,VALID,345,VALID,0.104687,
2011-05-09, 02:31:04,VALID,917.064,VALID,0,VALID,96.8326,VALID,0,VALID,19.9953,VALID,345,VALID,0.0953125,
2011-05-09, 02:32:04,VALID,917.072,VALID,0,VALID,96.7335,VALID,0,VALID,19.9368,VALID,345,VALID,0.303516,
2011-05-09, 02:33:04,VALID,917.04,VALID,0,VALID,96.703,VALID,0,VALID,19.8978,VALID,345,VALID,0.253516,
2011-05-09, 02:34:04,VALID,917.026,VALID,0,VALID,96.7488,VALID,0,VALID,19.8978,VALID,345,VALID,0.177344,
2011-05-09, 02:35:04,VALID,917.018,VALID,0,VALID,96.7411,VALID,0,VALID,19.9158,VALID,345,VALID,0.266406,
2011-05-09, 02:36:04,VALID,917.001,VALID,0,VALID,96.703,VALID,0,VALID,19.9173,VALID,345,VALID,0.264844,
2011-05-09, 02:37:04,VALID,917.003,VALID,0,VALID,96.6802,VALID,0,VALID,19.8963,VALID,345,VALID,0,
2011-05-09, 02:38:04,VALID,916.973,VALID,0,VALID,96.6573,VALID,0,VALID,19.8573,VALID,345,VALID,0,
2011-05-09, 02:39:04,VALID,916.97,VALID,0,VALID,96.6344,VALID,0,VALID,19.8378,VALID,345,VALID,0,
2011-05-09, 02:40:04,VALID,916.928,VALID,0,VALID,96.7564,VALID,0,VALID,19.8768,VALID,345,VALID,0,
2011-05-09, 02:41:04,VALID,916.935,VALID,0,VALID,96.7945,VALID,0,VALID,19.9158,VALID,345,VALID,0.116406,
2011-05-09, 02:42:04,VALID,916.915,VALID,0,VALID,96.5658,VALID,0,VALID,19.8963,VALID,345,VALID,0.577734,
2011-05-09, 02:43:04,VALID,916.883,VALID,0,VALID,96.2304,VALID,0,VALID,19.7013,VALID,345,VALID,0.126172,
2011-05-09, 02:44:04,VALID,916.886,VALID,0,VALID,96.4362,VALID,0,VALID,19.6428,VALID,345,VALID,0.678125,
2011-05-09, 02:45:04,VALID,916.879,VALID,0,VALID,96.4591,VALID,0,VALID,19.6428,VALID,345,VALID,0.500391,
2011-05-09, 02:46:04,VALID,916.865,VALID,0,VALID,96.7716,VALID,0,VALID,19.7208,VALID,345,VALID,0.497656,
2011-05-09, 02:47:04,VALID,916.894,VALID,0,VALID,96.6573,VALID,0,VALID,19.7793,VALID,345,VALID,0.322266,
2011-05-09, 02:48:04,VALID,916.901,VALID,0,VALID,96.5353,VALID,0,VALID,19.6998,VALID,345,VALID,0,
2011-05-09, 02:49:04,VALID,916.923,VALID,0,VALID,96.5734,VALID,0.107441,VALID,19.6818,VALID,345,VALID,0,
2011-05-09, 02:50:04,VALID,916.914,VALID,0,VALID,96.5658,VALID,0,VALID,19.7013,VALID,345,VALID,0,
2011-05-09, 02:51:04,VALID,916.934,VALID,0,VALID,96.6039,VALID,0.107441,VALID,19.7013,VALID,345,VALID,0,
2011-05-09, 02:52:04,VALID,916.901,VALID,0,VALID,96.5811,VALID,0,VALID,19.7043,VALID,345,VALID,0,
2011-05-09, 02:53:04,VALID,916.869,VALID,0,VALID,96.6649,VALID,0,VALID,19.7223,VALID,345,VALID,0.550781,
2011-05-09, 02:54:04,VALID,916.852,VALID,0,VALID,96.5658,VALID,0,VALID,19.7028,VALID,345,VALID,0.189844,
2011-05-09, 02:55:04,VALID,916.88,VALID,0,VALID,96.5277,VALID,0,VALID,19.6638,VALID,345,VALID,0.00585938,
2011-05-09, 02:56:04,VALID,916.854,VALID,0,VALID,96.4743,VALID,0,VALID,19.6248,VALID,345,VALID,0,
2011-05-09, 02:57:04,VALID,916.863,VALID,0,VALID,96.4591,VALID,0,VALID,19.5858,VALID,345,VALID,0,
2011-05-09, 02:58:04,VALID,916.836,VALID,0,VALID,96.4667,VALID,0,VALID,19.5858,VALID,345,VALID,0,
2011-05-09, 02:59:04,VALID,916.882,VALID,0,VALID,96.3981,VALID,0,VALID,19.5858,VALID,345,VALID,0.222266,
2011-05-09, 03:00:04,VALID,916.86,VALID,0,VALID,96.2533,VALID,0,VALID,19.4883,VALID,345,VALID,0,
2011-05-09, 03:01:04,VALID,916.843,VALID,0,VALID,96.4591,VALID,0,VALID,19.5663,VALID,345,VALID,0.0191406,
2011-05-09, 03:02:04,VALID,916.855,VALID,0,VALID,96.2456,VALID,0,VALID,19.5078,VALID,345,VALID,0,
2011-05-09, 03:03:04,VALID,916.848,VALID,0,VALID,96.2609,VALID,0,VALID,19.4493,VALID,345,VALID,0.912891,
2011-05-09, 03:04:04,VALID,916.824,VALID,0,VALID,96.1541,VALID,0,VALID,19.4313,VALID,345,VALID,0.494141,
2011-05-09, 03:05:04,VALID,916.824,VALID,0,VALID,96.1999,VALID,0,VALID,19.4103,VALID,345,VALID,0.358594,
2011-05-09, 03:06:04,VALID,916.868,VALID,0,VALID,96.2075,VALID,0,VALID,19.3908,VALID,345,VALID,0,
2011-05-09, 03:07:04,VALID,916.855,VALID,0,VALID,96.3142,VALID,0,VALID,19.4298,VALID,345,VALID,0.264453,
2011-05-09, 03:08:04,VALID,916.853,VALID,0,VALID,96.421,VALID,0,VALID,19.4688,VALID,345,VALID,0.0121094,
2011-05-09, 03:09:04,VALID,916.816,VALID,0,VALID,96.3981,VALID,0,VALID,19.5078,VALID,345,VALID,0,
2011-05-09, 03:10:04,VALID,916.817,VALID,0,VALID,96.3676,VALID,0,VALID,19.5078,VALID,345,VALID,0,
2011-05-09, 03:11:04,VALID,916.797,VALID,0,VALID,96.3829,VALID,0,VALID,19.5273,VALID,345,VALID,0,
2011-05-09, 03:12:04,VALID,916.771,VALID,0,VALID,96.2304,VALID,0,VALID,19.4493,VALID,345,VALID,0.100781,
2011-05-09, 03:13:04,VALID,916.809,VALID,0,VALID,96.177,VALID,0,VALID,19.4103,VALID,345,VALID,0,
2011-05-09, 03:14:04,VALID,916.777,VALID,0,VALID,96.2685,VALID,0,VALID,19.4688,VALID,345,VALID,0.308203,
2011-05-09, 03:15:04,VALID,916.728,VALID,0,VALID,96.3295,VALID,0,VALID,19.5288,VALID,345,VALID,0.280078,
2011-05-09, 03:16:04,VALID,916.75,VALID,0,VALID,96.055,VALID,0,VALID,19.4493,VALID,345,VALID,0.163672,
2011-05-09, 03:17:04,VALID,916.728,VALID,0,VALID,95.7196,VALID,0,VALID,19.2933,VALID,345,VALID,0.0207031,
2011-05-09, 03:18:04,VALID,916.734,VALID,0,VALID,96.177,VALID,0,VALID,19.4103,VALID,345,VALID,0.204688,
2011-05-09, 03:19:04,VALID,916.755,VALID,0,VALID,96.2609,VALID,0,VALID,19.4688,VALID,345,VALID,0,
2011-05-09, 03:20:04,VALID,916.732,VALID,0,VALID,96.3829,VALID,0,VALID,19.5468,VALID,345,VALID,0,
2011-05-09, 03:21:04,VALID,916.729,VALID,0,VALID,96.6115,VALID,0,VALID,19.6653,VALID,345,VALID,0.223828,
2011-05-09, 03:22:04,VALID,916.718,VALID,0,VALID,96.4667,VALID,0,VALID,19.6623,VALID,345,VALID,0.286328,
2011-05-09, 03:23:04,VALID,916.749,VALID,0,VALID,95.9559,VALID,0,VALID,19.4088,VALID,345,VALID,0.2875,
2011-05-09, 03:24:04,VALID,916.75,VALID,0,VALID,96.0932,VALID,0,VALID,19.4283,VALID,345,VALID,0.223438,
2011-05-09, 03:25:04,VALID,916.701,VALID,0,VALID,96.0093,VALID,0.107441,VALID,19.3698,VALID,345,VALID,0.24375,
2011-05-09, 03:26:04,VALID,916.685,VALID,0,VALID,96.1541,VALID,0,VALID,19.3503,VALID,345,VALID,0.429297,
2011-05-09, 03:27:04,VALID,916.678,VALID,0,VALID,96.1389,VALID,0,VALID,19.3308,VALID,345,VALID,0.304688,
2011-05-09, 03:28:04,VALID,916.658,VALID,0,VALID,96.0779,VALID,0,VALID,19.3128,VALID,345,VALID,0,
2011-05-09, 03:29:04,VALID,916.644,VALID,0,VALID,96.2151,VALID,0,VALID,19.3113,VALID,345,VALID,0,
2011-05-09, 03:30:04,VALID,916.692,VALID,0,VALID,96.2761,VALID,0,VALID,19.3308,VALID,345,VALID,0,
2011-05-09, 03:31:04,VALID,916.673,VALID,0,VALID,96.3905,VALID,0,VALID,19.3893,VALID,345,VALID,0,
2011-05-09, 03:32:04,VALID,916.669,VALID,0,VALID,96.4819,VALID,0,VALID,19.4673,VALID,345,VALID,0.173438,
2011-05-09, 03:33:04,VALID,916.656,VALID,0,VALID,96.2685,VALID,0,VALID,19.3893,VALID,345,VALID,0,
2011-05-09, 03:34:04,VALID,916.694,VALID,0,VALID,96.3829,VALID,0.107441,VALID,19.4074,VALID,345,VALID,0,
2011-05-09, 03:35:04,VALID,916.697,VALID,0,VALID,96.4515,VALID,0,VALID,19.4688,VALID,345,VALID,0,
2011-05-09, 03:36:04,VALID,916.658,VALID,0,VALID,96.4743,VALID,0,VALID,19.4673,VALID,345,VALID,0.372656,
2011-05-09, 03:37:04,VALID,916.664,VALID,0,VALID,96.4972,VALID,0,VALID,19.4868,VALID,345,VALID,0.346875,
2011-05-09, 03:38:04,VALID,916.634,VALID,0,VALID,96.5201,VALID,0.107441,VALID,19.4868,VALID,345,VALID,0.162109,
2011-05-09, 03:39:04,VALID,916.619,VALID,0,VALID,96.4743,VALID,0,VALID,19.4673,VALID,345,VALID,0,
2011-05-09, 03:40:04,VALID,916.633,VALID,0,VALID,96.4591,VALID,0.107441,VALID,19.4673,VALID,345,VALID,0.200391,
2011-05-09, 03:41:04,VALID,916.608,VALID,0,VALID,96.4515,VALID,0,VALID,19.4478,VALID,345,VALID,0.252344,
2011-05-09, 03:42:04,VALID,916.596,VALID,0,VALID,96.4057,VALID,0,VALID,19.4283,VALID,345,VALID,0.267969,
2011-05-09, 03:43:04,VALID,916.63,VALID,0,VALID,96.4438,VALID,0,VALID,19.4283,VALID,345,VALID,0.418359,
2011-05-09, 03:44:04,VALID,916.631,VALID,0,VALID,96.3905,VALID,0.107441,VALID,19.3893,VALID,345,VALID,0.290625,
2011-05-09, 03:45:04,VALID,916.65,VALID,0,VALID,96.4591,VALID,0,VALID,19.3698,VALID,345,VALID,0.0699219,
2011-05-09, 03:46:04,VALID,916.637,VALID,0,VALID,96.5201,VALID,0,VALID,19.4088,VALID,345,VALID,0,
2011-05-09, 03:47:04,VALID,916.635,VALID,0,VALID,96.6497,VALID,0.107441,VALID,19.4868,VALID,345,VALID,0,
2011-05-09, 03:48:04,VALID,916.59,VALID,0,VALID,96.5811,VALID,0,VALID,19.4673,VALID,345,VALID,0.239844,
2011-05-09, 03:49:04,VALID,916.577,VALID,0,VALID,96.6878,VALID,0,VALID,19.4868,VALID,345,VALID,0.203516,
2011-05-09, 03:50:04,VALID,916.522,VALID,0,VALID,96.7716,VALID,0,VALID,19.5663,VALID,345,VALID,0.358203,